Home   Weather   Uroševac   Past weeks

Flag for Kosovo Past Weather in Uroševac, Kosovo — Yesterday and Last 2 Weeks

Now
64 °F

Passing clouds.


Feels Like: 64 °F
Forecast: 38 / 70 °F
Wind: 7 mph from Southeast

Location: Skopje-Petrovec

Current Time: Apr 25, 2017 at 12:44:25 pm

Latest Report: Apr 25, 2017 at 12:00 pm


Visibility: N/A

Pressure: 30.15 "Hg (28.16 "Hg at 582m altitude)

Humidity: 46%

Dew Point: 43 °F

Location of UroševacLocation

Past Weather in Uroševac — Graph

°F

Uroševac Temperature Yesterday

Maximum temperature yesterday: 63 °F (at 3:00 pm)
Minimum temperature yesterday: 36 °F (at 5:30 am)
Average temperature yesterday: 49 °F

High & Low Weather Summary for the Past Weeks

 TemperatureHumidityPressure
High63 °F (Apr 23, 12:00 pm)93% (Apr 19, 9:30 pm)30.33 "Hg (Apr 19, 9:30 pm)
Low28 °F (Apr 22, 6:30 am)27% (Apr 24, 4:00 pm)29.77 "Hg (Apr 19, 9:00 am)
Average45 °F65%30.10 "Hg
* Reported Apr 19 9:00 am — Apr 25 11:30 am, Uroševac, Weather by CustomWeather, © 2017

Note: Actual official high and low records may vary slightly from our data, if they occured in-between our weather recording intervals... More about our weather records

Advertising

Uroševac Weather History for the Previous 24 Hours

Scroll right to see more
 ConditionsComfort  
Time TempWeatherWind HumidityBarometerVisibility
11:30 am
Tue, Apr 25
63 °FPassing clouds.7 mph52%30.15 "HgN/A
11:00 am59 °FSunny.2 mph55%30.18 "Hg10 mi
10:30 am57 °FSunny.2 mph63%30.18 "Hg10 mi
10:00 am55 °FSunny.2 mph63%30.21 "Hg10 mi
9:30 am52 °FSunny.2 mph72%30.21 "Hg10 mi
9:00 am50 °FSunny.No wind67%30.21 "Hg10 mi
8:30 am48 °FSunny.No wind66%30.21 "Hg10 mi
8:00 am45 °FSunny.No wind71%30.21 "Hg10 mi
7:30 am43 °FPassing clouds.No wind57%30.21 "HgN/A
7:00 am39 °FPassing clouds.No wind65%30.21 "HgN/A
6:30 am36 °FPassing clouds.No wind93%30.21 "HgN/A
6:00 am34 °FPassing clouds.1 mph87%30.21 "HgN/A
5:30 am34 °FClear.1 mph87%30.21 "Hg10 mi
5:00 am34 °FClear.2 mph93%30.18 "Hg10 mi
4:30 am36 °FClear.5 mph87%30.18 "Hg10 mi
4:00 am36 °FClear.5 mph87%30.18 "Hg10 mi
3:00 am37 °FClear.No wind81%30.18 "Hg10 mi
2:30 am37 °FClear.2 mph81%30.18 "Hg10 mi
2:00 am39 °FClear.2 mph75%30.18 "Hg10 mi
1:30 am41 °FClear.2 mph70%30.18 "Hg10 mi
1:00 am39 °FClear.2 mph75%30.18 "Hg10 mi
12:30 am39 °FClear.2 mph75%30.18 "Hg10 mi
12:00 am39 °FClear.2 mph81%30.18 "Hg10 mi
11:30 pm
Mon, Apr 24
41 °FClear.1 mph70%30.18 "Hg10 mi
11:00 pm43 °FClear.6 mph71%30.18 "Hg10 mi
10:00 pm45 °FClear.8 mph71%30.18 "Hg10 mi
9:30 pm46 °FClear.No wind62%30.18 "Hg10 mi
9:00 pm50 °FClear.No wind54%30.15 "Hg10 mi
8:30 pm50 °FClear.3 mph54%30.15 "Hg10 mi
8:00 pm50 °FPassing clouds.5 mph58%30.15 "HgN/A
7:30 pm59 °FClear.2 mph39%30.15 "Hg10 mi
7:00 pm61 °FSunny.2 mph31%30.12 "Hg10 mi
6:30 pm63 °FSunny.5 mph30%30.12 "Hg10 mi
6:00 pm63 °FSunny.2 mph30%30.12 "Hg10 mi
5:30 pm63 °FPassing clouds.6 mph27%30.15 "HgN/A
5:00 pm63 °FSunny.No wind27%30.15 "Hg10 mi
4:30 pm63 °FSunny.No wind27%30.15 "Hg10 mi
4:00 pm63 °FSunny.No wind27%30.15 "Hg10 mi
3:00 pm63 °FSunny.No wind30%30.18 "Hg10 mi
2:00 pm59 °FSunny.3 mph34%30.21 "Hg10 mi
1:30 pm59 °FSunny.No wind34%30.21 "Hg10 mi
1:00 pm57 °FSunny.No wind31%30.24 "Hg10 mi
12:30 pm57 °FSunny.No wind33%30.24 "Hg10 mi
12:00 pm55 °FSunny.No wind36%30.27 "Hg10 mi
Weather by CustomWeather, © 2017

See weather overviewHow to use our weather pages